Time,TemperatureF,DewpointF,PressureIn,WindDirection,WindDirectionDegrees,WindSpeedMPH,WindSpeedGustMPH,Humidity,HourlyPrecipIn,Conditions,Clouds,dailyrainin,SoftwareType,DateUTC
2013-08-10 00:02:00,73.0,67.0,29.98,North,0,1.0,3.0,81,0.00,,,0.01,,2013-08-10 04:02:00,
2013-08-10 00:32:00,73.0,67.0,29.98,NNE,12,3.0,4.0,82,0.00,,,0.01,,2013-08-10 04:32:00,
2013-08-10 00:53:00,72.0,67.0,29.98,North,350,3.0,5.0,83,0.00,,,0.01,,2013-08-10 04:53:00,
2013-08-10 01:43:00,72.0,67.0,29.98,NNE,19,2.0,4.0,83,0.00,,,0.01,,2013-08-10 05:43:00,
2013-08-10 01:52:00,72.0,67.0,29.98,NNE,13,2.0,5.0,83,0.00,,,0.01,,2013-08-10 05:52:00,
2013-08-10 03:02:00,71.0,66.0,29.98,North,355,1.0,2.0,83,0.00,,,0.01,,2013-08-10 07:02:00,
2013-08-10 03:12:00,71.0,66.0,29.98,North,350,1.0,2.0,85,0.00,,,0.01,,2013-08-10 07:12:00,
2013-08-10 03:22:00,71.0,66.0,29.98,North,350,1.0,3.0,84,0.00,,,0.01,,2013-08-10 07:22:00,
2013-08-10 03:33:00,71.0,66.0,29.98,North,11,2.0,5.0,84,0.00,,,0.01,,2013-08-10 07:33:00,
2013-08-10 03:43:00,71.0,67.0,29.98,North,9,4.0,5.0,86,0.00,,,0.01,,2013-08-10 07:43:00,
2013-08-10 03:52:00,70.0,66.0,29.98,North,5,2.0,4.0,86,0.00,,,0.01,,2013-08-10 07:52:00,
2013-08-10 04:01:00,71.0,66.0,29.98,North,5,2.0,3.0,85,0.00,,,0.01,,2013-08-10 08:01:00,
2013-08-10 04:12:00,70.0,66.0,29.98,North,5,1.0,3.0,86,0.00,,,0.01,,2013-08-10 08:12:00,
2013-08-10 04:32:00,70.0,65.0,29.98,North,5,0.0,1.0,85,0.00,,,0.01,,2013-08-10 08:32:00,
2013-08-10 04:43:00,70.0,65.0,29.98,North,5,0.0,0.0,84,0.00,,,0.01,,2013-08-10 08:43:00,
2013-08-10 04:53:00,71.0,66.0,29.98,North,5,0.0,1.0,83,0.00,,,0.01,,2013-08-10 08:53:00,
2013-08-10 05:02:00,71.0,66.0,29.99,NE,38,0.0,1.0,83,0.00,,,0.01,,2013-08-10 09:02:00,
2013-08-10 05:12:00,71.0,66.0,29.99,NE,38,0.0,1.0,83,0.00,,,0.01,,2013-08-10 09:12:00,
2013-08-10 05:22:00,71.0,65.0,29.99,NE,38,0.0,1.0,82,0.00,,,0.01,,2013-08-10 09:22:00,
2013-08-10 05:43:00,71.0,66.0,30.00,North,355,1.0,6.0,84,0.00,,,0.00,,2013-08-10 09:43:00,
2013-08-10 06:02:00,70.0,67.0,30.00,NNE,17,4.0,7.0,89,0.00,,,0.00,,2013-08-10 10:02:00,
2013-08-10 06:52:00,69.0,66.0,30.01,North,351,3.0,5.0,90,0.00,,,0.00,,2013-08-10 10:52:00,
2013-08-10 07:33:00,68.0,66.0,30.00,NNW,346,2.0,4.0,92,0.00,,,0.00,,2013-08-10 11:33:00,
2013-08-10 07:43:00,68.0,65.0,30.00,NNE,16,2.0,4.0,90,0.00,,,0.00,,2013-08-10 11:43:00,
2013-08-10 08:32:00,69.0,65.0,30.02,North,5,3.0,6.0,88,0.00,,,0.00,,2013-08-10 12:32:00,
2013-08-10 08:42:00,70.0,66.0,30.02,North,355,3.0,5.0,88,0.00,,,0.00,,2013-08-10 12:42:00,
2013-08-10 08:52:00,70.0,66.0,30.02,North,5,2.0,5.0,88,0.00,,,0.00,,2013-08-10 12:52:00,
2013-08-10 09:01:00,70.0,66.0,30.02,North,350,2.0,3.0,88,0.00,,,0.00,,2013-08-10 13:01:00,
2013-08-10 09:43:00,71.0,66.0,30.03,North,0,2.0,4.0,85,0.00,,,0.00,,2013-08-10 13:43:00,
2013-08-10 09:52:00,72.0,67.0,30.03,NNE,15,2.0,4.0,83,0.00,,,0.00,,2013-08-10 13:52:00,
2013-08-10 10:02:00,72.0,66.0,30.03,North,0,1.0,5.0,81,0.00,,,0.00,,2013-08-10 14:02:00,
2013-08-10 10:12:00,73.0,67.0,30.03,North,0,2.0,4.0,81,0.00,,,0.00,,2013-08-10 14:12:00,
2013-08-10 10:33:00,74.0,67.0,30.03,North,0,2.0,7.0,80,0.00,,,0.00,,2013-08-10 14:33:00,
2013-08-10 10:53:00,75.0,67.0,30.04,NNE,26,2.0,4.0,77,0.00,,,0.00,,2013-08-10 14:53:00,
2013-08-10 11:02:00,76.0,67.0,30.04,NNW,330,1.0,3.0,74,0.00,,,0.00,,2013-08-10 15:02:00,
2013-08-10 11:34:00,78.0,66.0,30.05,ESE,112,1.0,4.0,67,0.00,,,0.00,,2013-08-10 15:34:00,
2013-08-10 11:43:00,78.0,65.0,30.05,ENE,57,3.0,5.0,65,0.00,,,0.00,,2013-08-10 15:43:00,
2013-08-10 11:52:00,79.0,66.0,30.05,ESE,107,1.0,5.0,65,0.00,,,0.00,,2013-08-10 15:52:00,
2013-08-10 12:01:00,79.0,65.0,30.05,ENE,59,3.0,3.0,63,0.00,,,0.00,,2013-08-10 16:01:00,
2013-08-10 12:11:00,80.0,66.0,30.05,NE,39,2.0,3.0,62,0.00,,,0.00,,2013-08-10 16:11:00,
2013-08-10 12:22:00,81.0,66.0,30.05,SSW,194,2.0,5.0,60,0.00,,,0.00,,2013-08-10 16:22:00,
2013-08-10 12:32:00,81.0,65.0,30.05,ENE,78,2.0,5.0,59,0.00,,,0.00,,2013-08-10 16:32:00,
2013-08-10 12:43:00,81.0,65.0,30.04,ENE,57,1.0,3.0,58,0.00,,,0.00,,2013-08-10 16:43:00,
2013-08-10 12:53:00,82.0,65.0,30.05,NNW,333,1.0,5.0,57,0.00,,,0.00,,2013-08-10 16:53:00,
2013-08-10 13:02:00,83.0,66.0,30.04,NE,34,1.0,3.0,57,0.00,,,0.00,,2013-08-10 17:02:00,
2013-08-10 13:12:00,83.0,66.0,30.04,WNW,302,1.0,3.0,56,0.00,,,0.00,,2013-08-10 17:12:00,
2013-08-10 13:22:00,84.0,66.0,30.04,East,96,1.0,4.0,55,0.00,,,0.00,,2013-08-10 17:22:00,
2013-08-10 13:33:00,84.0,65.0,30.03,West,277,1.0,3.0,53,0.00,,,0.00,,2013-08-10 17:33:00,
2013-08-10 13:43:00,84.0,65.0,30.03,East,92,2.0,5.0,53,0.00,,,0.00,,2013-08-10 17:43:00,
2013-08-10 13:52:00,84.0,66.0,30.03,WNW,297,1.0,6.0,54,0.00,,,0.00,,2013-08-10 17:52:00,
2013-08-10 14:01:00,83.0,65.0,30.03,NNW,329,3.0,7.0,54,0.00,,,0.00,,2013-08-10 18:01:00,
2013-08-10 14:11:00,83.0,65.0,30.03,NNE,19,1.0,4.0,55,0.00,,,0.00,,2013-08-10 18:11:00,
2013-08-10 14:23:00,82.0,65.0,30.03,NNW,338,2.0,4.0,56,0.00,,,0.00,,2013-08-10 18:23:00,
2013-08-10 14:32:00,83.0,65.0,30.02,North,9,1.0,4.0,55,0.00,,,0.00,,2013-08-10 18:32:00,
2013-08-10 14:44:00,82.0,65.0,30.02,NNE,25,1.0,1.0,57,0.00,,,0.00,,2013-08-10 18:44:00,
2013-08-10 14:52:00,82.0,65.0,30.02,North,9,1.0,4.0,57,0.00,,,0.00,,2013-08-10 18:52:00,
2013-08-10 15:02:00,82.0,65.0,30.02,NNE,19,1.0,3.0,57,0.00,,,0.00,,2013-08-10 19:02:00,
2013-08-10 15:11:00,83.0,66.0,30.01,NE,42,0.0,2.0,56,0.00,,,0.00,,2013-08-10 19:11:00,
2013-08-10 15:22:00,83.0,66.0,30.01,North,5,1.0,4.0,56,0.00,,,0.00,,2013-08-10 19:22:00,
2013-08-10 15:33:00,83.0,67.0,30.01,NNW,337,3.0,5.0,59,0.00,,,0.00,,2013-08-10 19:33:00,
2013-08-10 15:44:00,82.0,65.0,30.01,NE,55,2.0,6.0,57,0.00,,,0.00,,2013-08-10 19:44:00,
2013-08-10 15:53:00,82.0,66.0,30.01,NNW,345,2.0,4.0,59,0.00,,,0.00,,2013-08-10 19:53:00,
2013-08-10 16:02:00,81.0,65.0,30.01,NNE,19,3.0,5.0,58,0.00,,,0.00,,2013-08-10 20:02:00,
2013-08-10 16:12:00,82.0,65.0,30.01,NNW,329,1.0,3.0,57,0.00,,,0.00,,2013-08-10 20:12:00,
2013-08-10 16:22:00,83.0,66.0,30.01,North,5,2.0,7.0,57,0.00,,,0.00,,2013-08-10 20:22:00,
2013-08-10 16:33:00,82.0,66.0,30.01,NNW,343,3.0,5.0,59,0.00,,,0.00,,2013-08-10 20:33:00,
2013-08-10 16:43:00,81.0,66.0,30.01,North,355,3.0,7.0,60,0.00,,,0.00,,2013-08-10 20:43:00,
2013-08-10 16:53:00,81.0,66.0,30.00,North,349,3.0,7.0,60,0.00,,,0.00,,2013-08-10 20:53:00,
2013-08-10 17:02:00,81.0,67.0,30.00,North,355,3.0,8.0,62,0.00,,,0.00,,2013-08-10 21:02:00,
2013-08-10 17:12:00,81.0,66.0,29.99,North,5,3.0,5.0,61,0.00,,,0.00,,2013-08-10 21:12:00,
2013-08-10 17:22:00,81.0,66.0,29.99,North,0,4.0,5.0,61,0.00,,,0.00,,2013-08-10 21:22:00,
2013-08-10 17:32:00,82.0,66.0,29.98,NNE,28,3.0,5.0,58,0.00,,,0.00,,2013-08-10 21:32:00,
2013-08-10 17:42:00,83.0,66.0,29.98,North,355,3.0,7.0,57,0.00,,,0.00,,2013-08-10 21:42:00,
2013-08-10 17:52:00,82.0,64.0,29.98,North,5,4.0,8.0,54,0.00,,,0.00,,2013-08-10 21:52:00,
2013-08-10 18:01:00,83.0,65.0,29.98,NNW,327,3.0,7.0,54,0.00,,,0.00,,2013-08-10 22:01:00,
2013-08-10 18:11:00,83.0,65.0,29.98,North,5,3.0,6.0,55,0.00,,,0.00,,2013-08-10 22:11:00,
2013-08-10 18:21:00,83.0,66.0,29.98,NNE,13,4.0,7.0,56,0.00,,,0.00,,2013-08-10 22:21:00,
2013-08-10 18:32:00,82.0,65.0,29.98,North,5,4.0,6.0,56,0.00,,,0.00,,2013-08-10 22:32:00,
2013-08-10 18:52:00,82.0,66.0,29.98,NNE,12,3.0,7.0,58,0.00,,,0.00,,2013-08-10 22:52:00,
2013-08-10 19:01:00,83.0,67.0,29.98,North,11,2.0,6.0,58,0.00,,,0.00,,2013-08-10 23:01:00,
2013-08-10 19:12:00,83.0,67.0,29.98,North,350,2.0,5.0,58,0.00,,,0.00,,2013-08-10 23:12:00,
2013-08-10 19:22:00,82.0,67.0,29.98,NNW,334,3.0,5.0,60,0.00,,,0.00,,2013-08-10 23:22:00,
2013-08-10 19:32:00,82.0,67.0,29.98,North,355,2.0,5.0,61,0.00,,,0.00,,2013-08-10 23:32:00,
2013-08-10 19:43:00,82.0,67.0,29.98,North,355,2.0,5.0,61,0.00,,,0.00,,2013-08-10 23:43:00,
2013-08-10 19:53:00,82.0,67.0,29.98,North,5,2.0,5.0,61,0.00,,,0.00,,2013-08-10 23:53:00,
2013-08-10 20:02:00,81.0,67.0,29.98,North,9,2.0,5.0,62,0.00,,,0.00,,2013-08-11 00:02:00,
2013-08-10 20:11:00,81.0,68.0,29.98,North,355,2.0,4.0,64,0.00,,,0.00,,2013-08-11 00:11:00,
2013-08-10 20:22:00,81.0,68.0,29.98,NNE,13,2.0,3.0,65,0.00,,,0.00,,2013-08-11 00:22:00,
2013-08-10 20:32:00,80.0,67.0,29.98,NNE,13,1.0,4.0,65,0.00,,,0.00,,2013-08-11 00:32:00,
2013-08-10 20:42:00,80.0,67.0,29.99,North,349,0.0,2.0,65,0.00,,,0.00,,2013-08-11 00:42:00,
2013-08-10 20:52:00,80.0,68.0,29.99,NNW,329,0.0,3.0,66,0.00,,,0.00,,2013-08-11 00:52:00,
2013-08-10 21:01:00,80.0,67.0,29.99,NW,307,1.0,4.0,65,0.00,,,0.00,,2013-08-11 01:01:00,
2013-08-10 21:11:00,80.0,67.0,29.99,WNW,292,2.0,5.0,64,0.00,,,0.00,,2013-08-11 01:11:00,
2013-08-10 21:22:00,80.0,67.0,29.99,NW,306,3.0,5.0,64,0.00,,,0.00,,2013-08-11 01:22:00,
2013-08-10 21:32:00,79.0,66.0,30.00,NW,315,3.0,6.0,65,0.00,,,0.00,,2013-08-11 01:32:00,
2013-08-10 21:43:00,79.0,67.0,30.00,NW,310,2.0,6.0,67,0.00,,,0.00,,2013-08-11 01:43:00,
2013-08-10 21:53:00,78.0,67.0,30.00,WNW,302,2.0,5.0,69,0.00,,,0.00,,2013-08-11 01:53:00,
2013-08-10 22:02:00,78.0,68.0,30.01,WNW,302,3.0,4.0,71,0.00,,,0.00,,2013-08-11 02:02:00,
2013-08-10 22:11:00,78.0,68.0,30.01,WNW,302,1.0,2.0,71,0.00,,,0.00,,2013-08-11 02:11:00,
2013-08-10 22:22:00,77.0,68.0,30.01,WNW,302,0.0,3.0,73,0.00,,,0.00,,2013-08-11 02:22:00,
2013-08-10 22:32:00,77.0,68.0,30.01,WNW,303,1.0,4.0,74,0.00,,,0.00,,2013-08-11 02:32:00,
2013-08-10 22:43:00,76.0,67.0,30.02,NW,309,2.0,4.0,75,0.00,,,0.00,,2013-08-11 02:43:00,
2013-08-10 22:56:00,76.0,68.0,30.01,NW,312,2.0,4.0,76,0.00,,,0.00,,2013-08-11 02:56:00,
2013-08-10 23:05:00,76.0,68.0,30.02,NW,321,1.0,5.0,77,0.00,,,0.00,,2013-08-11 03:05:00,
2013-08-10 23:17:00,75.0,68.0,30.02,NNW,341,2.0,5.0,78,0.00,,,0.00,,2013-08-11 03:17:00,
2013-08-10 23:27:00,75.0,68.0,30.02,NNW,341,2.0,4.0,79,0.00,,,0.00,,2013-08-11 03:27:00,
2013-08-10 23:35:00,75.0,68.0,30.01,NNW,342,1.0,3.0,79,0.00,,,0.00,,2013-08-11 03:35:00,
2013-08-10 23:44:00,75.0,68.0,30.02,NNW,342,1.0,3.0,80,0.00,,,0.00,,2013-08-11 03:44:00,
2013-08-10 23:54:00,75.0,69.0,30.02,NNW,342,0.0,2.0,81,0.00,,,0.00,,2013-08-11 03:54:00,